Precipitable_Water
0.87 0.89 0.89 0.88 0.88 0.86 0.83 0.81 0.79 0.75 0.72 0.69 0.67 0.65 0.64 0.66 0.69 0.73 0.75 0.75 0.71 0.66 0.66 0.66 0.65 0.66 0.69 0.73 0.75 0.77 0.79 0.78 0.76 0.75 0.76 0.79 0.81 0.81 0.80 0.80 0.78 0.78 0.81
0.90 0.94 0.88 0.86 0.84 0.83 0.82 0.77 0.72 0.68 0.64 0.63 0.57 0.59 0.58 0.59 0.61 0.64 0.69 0.70 0.67 0.67 0.63 0.63 0.63 0.63 0.65 0.69 0.73 0.78 0.79 0.78 0.74 0.73 0.72 0.75 0.78 0.81 0.82 0.83 0.84 0.83 0.82
0.93 0.93 0.91 0.88 0.89 0.88 0.84 0.83 0.79 0.72 0.64 0.59 0.54 0.55 0.55 0.56 0.56 0.57 0.63 0.65 0.66 0.65 0.65 0.62 0.61 0.62 0.63 0.66 0.71 0.75 0.77 0.76 0.73 0.72 0.72 0.73 0.76 0.79 0.82 0.83 0.83 0.82 0.83
1.01 0.93 0.95 0.93 0.97 0.91 0.89 0.83 0.76 0.65 0.60 0.55 0.51 0.50 0.48 0.49 0.50 0.51 0.54 0.59 0.62 0.65 0.65 0.64 0.63 0.61 0.61 0.63 0.65 0.69 0.72 0.72 0.71 0.71 0.71 0.71 0.74 0.77 0.83 0.84 0.83 0.81 0.80
0.98 0.99 0.96 0.98 0.95 0.88 0.85 0.80 0.72 0.67 0.58 0.54 0.52 0.51 0.49 0.48 0.49 0.50 0.50 0.52 0.56 0.60 0.62 0.64 0.64 0.62 0.58 0.59 0.61 0.65 0.68 0.70 0.70 0.71 0.71 0.71 0.72 0.76 0.85 0.87 0.85 0.83 0.84
1.02 1.01 0.99 0.94 0.92 0.88 0.86 0.83 0.75 0.72 0.65 0.60 0.57 0.54 0.55 0.55 0.55 0.53 0.51 0.50 0.50 0.53 0.57 0.58 0.60 0.60 0.59 0.59 0.59 0.60 0.64 0.67 0.69 0.70 0.71 0.72 0.73 0.74 0.82 0.87 0.87 0.86 0.86
1.08 1.03 0.99 0.96 0.95 0.90 0.87 0.85 0.79 0.72 0.68 0.69 0.61 0.58 0.56 0.56 0.55 0.54 0.53 0.50 0.49 0.49 0.51 0.55 0.58 0.61 0.61 0.61 0.61 0.62 0.63 0.67 0.68 0.70 0.71 0.72 0.73 0.75 0.79 0.86 0.88 0.87 0.87
1.04 0.99 0.98 0.97 0.96 0.93 0.91 0.88 0.83 0.75 0.74 0.75 0.62 0.59 0.48 0.50 0.53 0.55 0.54 0.52 0.51 0.53 0.53 0.56 0.59 0.61 0.63 0.64 0.65 0.65 0.65 0.68 0.68 0.69 0.70 0.72 0.75 0.76 0.79 0.86 0.89 0.88 0.91
1.03 1.03 1.01 0.97 0.95 0.94 0.89 0.89 0.87 0.80 0.71 0.76 0.76 0.64 0.50 0.42 0.49 0.53 0.53 0.55 0.55 0.57 0.61 0.62 0.64 0.65 0.66 0.67 0.67 0.67 0.67 0.66 0.67 0.69 0.71 0.74 0.78 0.80 0.82 0.87 0.93 0.90 0.91
1.02 1.03 1.02 1.00 0.98 0.95 0.89 0.86 0.84 0.79 0.75 0.67 0.72 0.74 0.70 0.63 0.50 0.43 0.55 0.59 0.66 0.62 0.61 0.63 0.66 0.70 0.73 0.74 0.74 0.74 0.73 0.73 0.74 0.76 0.77 0.80 0.83 0.85 0.87 0.89 0.94 0.94 0.93
1.06 1.04 1.02 0.97 0.94 0.90 0.83 0.80 0.78 0.75 0.73 0.68 0.65 0.64 0.63 0.64 0.66 0.56 0.42 0.45 0.56 0.60 0.65 0.66 0.67 0.68 0.71 0.74 0.79 0.81 0.83 0.82 0.80 0.81 0.81 0.84 0.86 0.87 0.87 0.87 0.88 0.93 0.95
1.01 1.01 0.97 0.92 0.90 0.81 0.75 0.73 0.72 0.70 0.69 0.67 0.65 0.63 0.60 0.55 0.53 0.55 0.52 0.53 0.53 0.56 0.65 0.71 0.73 0.75 0.73 0.74 0.76 0.78 0.81 0.82 0.83 0.84 0.84 0.85 0.85 0.85 0.84 0.83 0.84 0.87 0.90
0.97 0.91 0.89 0.83 0.73 0.71 0.68 0.66 0.62 0.60 0.61 0.58 0.56 0.57 0.59 0.60 0.62 0.61 0.58 0.54 0.53 0.57 0.61 0.66 0.68 0.72 0.75 0.75 0.75 0.77 0.78 0.80 0.83 0.85 0.84 0.85 0.84 0.81 0.82 0.81 0.83 0.87 0.90
0.89 0.81 0.71 0.60 0.51 0.45 0.43 0.43 0.48 0.51 0.53 0.52 0.50 0.50 0.49 0.51 0.55 0.58 0.56 0.54 0.47 0.49 0.55 0.52 0.63 0.65 0.66 0.68 0.67 0.72 0.71 0.75 0.81 0.79 0.81 0.82 0.80 0.83 0.79 0.79 0.83 0.86 0.88
0.77 0.62 0.50 0.43 0.39 0.38 0.38 0.37 0.36 0.35 0.35 0.36 0.38 0.43 0.47 0.52 0.55 0.53 0.50 0.50 0.46 0.34 0.32 0.37 0.42 0.52 0.55 0.55 0.60 0.63 0.70 0.66 0.74 0.76 0.78 0.83 0.82 0.80 0.82 0.80 0.84 0.85 0.85
0.57 0.46 0.40 0.37 0.37 0.37 0.37 0.37 0.36 0.36 0.35 0.35 0.36 0.35 0.37 0.39 0.40 0.42 0.45 0.46 0.44 0.38 0.30 0.38 0.35 0.39 0.43 0.44 0.47 0.53 0.62 0.65 0.69 0.68 0.75 0.75 0.79 0.81 0.81 0.80 0.81 0.80 0.83
0.43 0.38 0.38 0.38 0.38 0.39 0.39 0.38 0.37 0.36 0.33 0.33 0.34 0.35 0.34 0.36 0.35 0.34 0.34 0.35 0.36 0.36 0.30 0.30 0.35 0.36 0.35 0.38 0.39 0.37 0.45 0.58 0.63 0.69 0.70 0.74 0.75 0.79 0.81 0.82 0.83 0.81 0.83
0.39 0.39 0.40 0.41 0.42 0.41 0.40 0.39 0.37 0.34 0.33 0.33 0.35 0.35 0.34 0.34 0.32 0.33 0.33 0.33 0.34 0.36 0.34 0.26 0.31 0.33 0.35 0.38 0.40 0.40 0.39 0.43 0.64 0.52 0.71 0.70 0.76 0.80 0.81 0.81 0.81 0.82 0.81
0.41 0.42 0.42 0.42 0.42 0.41 0.40 0.39 0.35 0.34 0.36 0.36 0.37 0.36 0.34 0.33 0.31 0.31 0.31 0.29 0.29 0.31 0.32 0.30 0.26 0.33 0.34 0.39 0.39 0.42 0.43 0.47 0.47 0.53 0.62 0.73 0.75 0.79 0.79 0.78 0.81 0.80 0.80
0.42 0.43 0.43 0.42 0.41 0.40 0.39 0.37 0.35 0.35 0.35 0.36 0.36 0.35 0.33 0.33 0.31 0.31 0.30 0.30 0.31 0.31 0.32 0.31 0.30 0.30 0.34 0.37 0.40 0.38 0.35 0.49 0.41 0.60 0.63 0.73 0.77 0.76 0.76 0.75 0.73 0.74 0.81
0.43 0.43 0.41 0.40 0.39 0.37 0.37 0.36 0.36 0.36 0.34 0.32 0.32 0.32 0.33 0.33 0.33 0.33 0.31 0.31 0.32 0.32 0.32 0.32 0.33 0.34 0.34 0.36 0.35 0.38 0.36 0.41 0.48 0.61 0.53 0.65 0.70 0.71 0.72 0.73 0.71 0.72 0.74
0.42 0.41 0.40 0.38 0.35 0.34 0.37 0.38 0.38 0.35 0.32 0.30 0.28 0.28 0.29 0.30 0.31 0.30 0.30 0.33 0.36 0.34 0.32 0.35 0.35 0.37 0.39 0.42 0.38 0.41 0.45 0.46 0.41 0.61 0.60 0.57 0.67 0.65 0.69 0.71 0.72 0.72 0.70
0.40 0.38 0.37 0.35 0.34 0.35 0.37 0.37 0.35 0.33 0.30 0.28 0.28 0.27 0.26 0.28 0.30 0.28 0.29 0.33 0.33 0.39 0.41 0.42 0.39 0.41 0.43 0.48 0.48 0.48 0.49 0.50 0.50 0.60 0.60 0.53 0.60 0.59 0.66 0.69 0.70 0.69 0.69
0.37 0.36 0.34 0.34 0.33 0.33 0.34 0.33 0.33 0.31 0.29 0.28 0.28 0.26 0.26 0.27 0.27 0.28 0.27 0.29 0.31 0.35 0.39 0.44 0.48 0.49 0.51 0.54 0.54 0.52 0.54 0.54 0.55 0.58 0.59 0.48 0.56 0.55 0.62 0.65 0.65 0.64 0.63
0.35 0.33 0.34 0.32 0.31 0.30 0.29 0.30 0.30 0.28 0.25 0.24 0.25 0.25 0.25 0.24 0.26 0.29 0.27 0.27 0.29 0.31 0.39 0.45 0.49 0.52 0.53 0.54 0.56 0.55 0.51 0.50 0.47 0.50 0.56 0.52 0.52 0.51 0.54 0.55 0.58 0.59 0.60
0.33 0.33 0.31 0.30 0.28 0.25 0.26 0.26 0.26 0.24 0.21 0.21 0.24 0.22 0.21 0.22 0.24 0.26 0.28 0.27 0.28 0.29 0.34 0.38 0.45 0.49 0.53 0.53 0.55 0.56 0.54 0.48 0.48 0.46 0.54 0.49 0.49 0.50 0.43 0.50 0.52 0.54 0.55
Wind_Speed
2 3 3 4 4 5 5 5 6 7 7 8 9 9 10 10 11 12 12 13 13 14 14 14 15 15 16 16 17 17 18 19 20 21 21 22 22 23 24 25 25 26 26
4 4 5 5 6 6 7 7 8 9 9 10 11 11 12 13 14 14 14 15 16 16 16 17 18 18 19 19 19 19 20 21 22 23 24 24 25 25 26 27 27 28 28
6 6 7 7 7 8 9 9 10 10 11 12 13 13 14 15 15 16 17 17 18 19 19 20 21 21 22 22 22 23 24 24 25 26 26 27 27 28 28 29 30 30 31
6 7 8 9 9 10 10 11 11 12 13 14 14 15 16 17 18 18 19 20 20 21 22 23 24 24 25 25 25 26 27 27 28 29 29 30 30 31 31 32 33 33 33
8 9 9 9 10 11 12 12 13 13 14 16 17 18 19 19 20 21 21 22 23 24 25 26 27 28 28 28 29 29 30 30 31 31 32 32 33 33 34 34 35 35 35
10 10 10 11 12 12 13 13 14 15 16 18 19 20 20 21 21 22 23 24 25 27 28 29 29 30 31 31 32 32 33 33 34 34 34 35 36 36 36 37 37 36 36
11 11 12 13 13 14 15 15 16 17 18 19 20 21 21 21 22 23 24 25 27 29 30 31 31 32 33 33 34 34 35 36 36 37 37 38 38 38 38 38 38 37 37
12 13 13 14 15 16 17 17 18 19 20 20 21 22 22 22 21 25 28 28 30 31 31 33 33 34 35 35 36 37 38 38 39 40 40 40 40 40 40 40 39 38 36
14 14 15 16 17 18 19 20 20 21 21 22 22 23 24 24 29 27 29 31 31 32 34 34 35 36 37 39 40 41 41 42 42 42 42 42 42 42 41 41 40 38 36
14 15 17 18 19 20 21 21 21 21 22 24 25 25 27 29 30 31 30 33 36 36 37 38 39 41 42 43 44 45 45 45 45 45 45 44 43 43 42 42 40 39 36
16 17 19 20 20 20 20 21 22 23 24 25 27 29 30 32 34 36 38 37 39 40 41 42 43 44 45 46 46 47 47 47 47 46 46 45 44 43 42 42 41 40 38
18 20 20 20 20 21 22 22 23 24 26 28 30 31 33 34 36 38 40 42 42 42 42 44 45 46 46 46 46 47 47 47 47 47 46 45 45 44 43 42 41 40 38
21 21 21 21 21 22 22 23 25 26 28 30 32 33 35 37 38 40 42 44 45 46 46 45 45 45 46 47 48 48 48 47 47 48 47 46 45 44 43 42 41 39 38
22 22 21 22 22 23 24 25 27 28 30 32 34 36 37 38 39 41 42 45 48 48 47 46 44 45 46 48 49 50 49 49 48 48 48 47 46 46 45 44 43 41 39
22 22 22 23 23 24 26 28 29 31 33 35 36 37 38 40 41 42 43 44 45 49 48 47 47 47 47 49 50 51 51 52 51 50 50 49 48 48 47 46 45 43 41
23 23 23 24 25 27 28 30 32 33 35 36 38 40 41 42 43 43 43 43 44 46 50 48 49 50 51 52 53 54 54 55 55 55 54 53 53 51 49 47 45 43 40
23 24 25 26 27 29 31 32 34 36 38 39 41 42 42 42 42 43 43 44 45 46 49 52 52 53 54 55 56 55 56 56 57 57 56 55 54 52 49 46 43 40 40
24 25 26 28 29 31 33 35 37 39 40 42 43 42 42 42 42 42 43 44 45 47 49 54 54 55 56 56 57 57 57 57 56 57 56 56 54 50 47 44 41 37 34
25 27 28 30 32 34 36 37 39 40 42 42 42 42 41 42 42 42 43 45 47 48 50 53 56 57 58 58 59 58 57 55 57 54 51 49 47 41 38 36 32 31 29
27 28 30 32 34 36 37 39 41 42 42 42 41 41 41 42 42 44 45 47 48 50 52 53 56 58 58 59 60 60 59 52 51 45 42 38 35 35 33 30 30 28 26
28 30 32 34 36 37 38 40 42 42 42 42 41 41 41 42 44 45 47 48 50 51 52 54 55 56 57 57 55 55 51 47 41 36 34 30 26 26 25 25 24 24 25
30 31 33 35 37 38 40 42 42 41 41 41 41 41 42 43 44 47 48 50 50 52 53 53 53 52 54 53 50 46 42 35 32 30 25 21 20 20 19 20 17 17 16
32 33 35 36 38 40 41 42 41 41 41 42 42 43 45 45 47 49 50 50 51 50 52 52 51 49 50 45 42 38 32 30 25 20 16 16 17 16 16 15 15 16 16
34 35 37 39 40 40 41 41 41 41 42 43 44 45 47 48 49 51 52 52 52 51 50 49 46 44 41 37 32 29 25 20 16 13 13 13 12 12 11 10 11 12 13
35 36 38 40 40 39 40 41 42 42 44 45 46 47 48 50 51 53 54 55 54 52 50 46 41 38 35 33 28 24 20 13 9 8 8 7 9 8 9 10 10 10 10
36 38 39 39 39 40 40 40 42 44 46 47 48 49 51 52 54 56 56 57 56 52 48 43 37 33 29 26 21 16 12 10 8 8 9 8 9 9 9 10 10 10 10
Wind_Direction
277 288 301 310 311 311 307 307 306 305 306 305 306 304 303 303 302 303 302 303 305 305 304 305 307 308 309 309 308 308 309 311 313 313 313 313 313 313 313 312 311 308 305
274 284 292 298 302 301 303 300 299 300 300 301 302 301 300 299 299 299 300 299 301 302 300 300 302 303 303 303 304 303 304 306 308 309 309 309 308 309 310 311 310 308 306
274 282 289 294 296 298 298 299 299 299 298 299 299 300 299 298 297 297 296 297 297 298 298 298 298 299 299 299 299 300 301 302 304 305 306 306 305 305 307 308 308 307 305
280 284 291 296 296 299 298 298 297 297 297 298 298 298 298 297 296 295 295 295 295 295 295 296 297 296 296 296 296 297 298 299 300 301 303 304 303 303 304 305 305 305 303
276 286 289 295 298 299 298 298 297 297 298 298 298 298 297 296 295 295 295 295 295 295 295 295 295 295 294 294 294 295 296 297 298 299 300 301 302 301 301 303 304 304 303
275 282 288 291 297 299 299 298 299 299 299 298 299 299 298 296 295 295 296 296 297 295 295 295 294 294 294 293 293 293 294 295 296 296 298 299 300 300 300 301 302 303 303
275 281 286 291 294 297 298 298 298 299 299 300 301 301 300 299 295 298 299 299 299 297 297 296 295 294 294 293 293 293 293 294 294 295 295 297 298 298 298 299 300 301 300
277 281 285 289 293 295 297 298 298 299 299 302 301 301 300 301 300 301 299 300 300 299 298 297 296 295 294 294 293 293 293 293 293 293 294 295 295 296 297 297 298 299 298
277 281 286 289 291 294 295 296 297 298 298 300 302 300 300 298 301 301 300 299 300 300 299 298 297 296 295 294 293 292 291 291 291 291 292 292 293 294 295 295 296 296 295
278 283 287 290 291 293 294 295 295 296 298 299 300 299 298 298 299 299 299 299 299 299 297 297 296 296 294 293 293 292 291 290 290 289 290 290 290 291 292 293 293 292 291
281 286 289 291 292 294 295 295 296 297 298 298 299 300 300 299 298 297 298 299 298 298 297 297 296 295 294 293 292 292 291 290 289 288 288 288 288 289 290 290 290 288 287
283 288 290 291 292 294 294 296 297 297 298 299 300 300 299 300 300 299 299 299 299 299 298 298 297 296 294 293 292 292 291 290 289 288 287 286 286 287 287 288 288 287 283
283 288 289 290 292 294 296 297 298 299 300 301 302 302 301 301 300 300 299 299 299 300 300 299 298 297 296 294 293 292 290 289 289 288 286 284 284 284 285 285 285 285 281
282 286 287 289 291 293 296 298 299 300 301 302 303 303 302 302 302 301 300 300 300 300 300 300 300 299 297 295 294 292 289 288 287 287 285 283 283 283 282 282 281 281 278
282 284 285 288 291 293 296 299 299 301 302 303 304 304 303 303 302 301 301 300 300 301 300 301 300 300 299 298 296 294 290 289 286 285 284 281 280 281 280 280 278 277 273
281 282 285 287 290 293 296 299 300 302 303 304 304 305 304 303 303 302 301 301 300 299 299 301 301 301 300 299 298 295 291 289 286 284 282 279 279 279 277 277 275 272 268
280 282 285 288 291 294 297 299 301 302 304 304 305 305 304 304 303 303 302 302 301 300 299 300 300 301 300 299 298 296 294 290 287 285 282 279 277 276 274 274 272 270 265
280 283 286 289 292 295 297 299 301 303 304 304 305 304 304 304 304 304 304 304 303 303 302 301 302 302 300 299 298 296 295 291 287 287 281 278 274 272 272 270 269 266 260
281 284 287 290 293 295 298 299 302 303 304 304 304 304 304 304 304 305 305 305 305 304 304 303 302 303 301 300 298 297 296 293 292 289 284 279 273 268 267 267 261 260 256
282 285 288 291 294 296 298 300 302 303 304 304 304 304 304 304 305 305 306 306 306 306 305 304 304 304 304 303 300 298 296 293 293 289 283 281 267 266 264 261 261 260 247
283 287 290 293 295 297 298 300 302 303 303 303 304 304 304 304 305 306 307 307 307 307 306 306 307 307 308 307 304 302 297 294 290 284 286 269 268 263 262 258 261 250 242
285 288 292 295 296 298 299 300 301 302 303 303 304 304 305 305 305 307 307 307 307 307 307 307 308 309 311 310 306 302 299 293 291 288 278 257 268 252 255 258 250 233 228
286 289 293 295 297 298 299 300 301 301 303 303 304 305 305 306 306 307 307 307 308 308 308 307 307 308 310 311 310 304 298 292 284 281 272 258 262 252 249 251 241 232 229
288 290 293 296 298 298 299 300 301 301 302 304 304 305 305 306 306 307 307 306 307 308 309 309 307 308 310 312 311 309 304 294 282 271 262 258 242 239 238 233 224 222 227
289 292 294 296 297 298 299 300 301 302 303 304 304 305 305 306 306 306 307 306 306 305 306 305 305 306 308 311 307 303 301 289 277 259 249 233 230 226 234 225 219 224 225
290 293 295 296 297 298 299 301 302 302 303 304 304 305 306 306 306 307 307 306 304 302 301 300 299 300 303 308 311 306 296 272 271 256 243 247 233 232 235 230 222 224 222